2024-173C

Last updated on Fri Oct 25 2024 00:02:04 GMT+0000 (Coordinated Universal Time)

1 61229U 24173C 24298.52299644 .00041129 00000+0 15707-2 0 9991 2 61229 97.4019 11.0159 0012412 167.7072 192.4471 15.26444024 4621

Satellite not in orbit

2024-173C